Tartu current weather conditions

sailwx.info

Wind from 100 at 12 knots

Air temperature 4.0° C
Visibility: greater than 5.4 NM
Dewpoint 2.0° C

Last reported at 2015-Apr-01 08:50 UTC.
Time now 2015-Apr-01 10:37 UTC

Location: N 58°18' E 026°41'.
View on Google Maps.

See reports from other nearby stations

  
Tides and Currents Weather Stations Pressure Air Temp Water Temp Dewpoint Dewpoint Depression Visibility Wind Speed Wind Dir Waves Ship Positions
date/time (UTC)wind fromknots sea level pressurealtimeterstation pressurevisibilityair tempwater tempwave heightnotes
2015-Apr-01 08:50 100 12 5.4 4.0
2015-Apr-01 07:50 100 10 5.4 4.0
2015-Apr-01 06:50 110 12 5.4 3.0
2015-Apr-01 05:50 110 9 5.4 3.0
2015-Apr-01 04:50 100 9 5.4 2.0
2015-Apr-01 03:50 110 8 5.4 2.0
2015-Apr-01 02:50 100 8 5.4 1.0
2015-Apr-01 01:50 080 6 5.4 1.0
2015-Apr-01 00:50 080 5 5.4 1.0
2015-Mar-31 23:50 100 5 5.4 1.0
2015-Mar-31 22:50 110 4 5.4 1.0
2015-Mar-31 21:50 110 3 5.4 2.0
2015-Mar-31 20:50 110 3 4.9 2.0
2015-Mar-31 19:50 120 3 4.9 1.0
2015-Mar-31 18:50 5.4 2.0
2015-Mar-31 17:50 5.4 3.0
2015-Mar-31 16:50 200 2 5.4 4.0
2015-Mar-31 15:50 210 3 5.4 5.0
2015-Mar-31 14:50 260 6 5.4 4.0
2015-Mar-31 13:50 200 8 5.4 6.0
2015-Mar-31 12:50 200 7 5.4 5.0
2015-Mar-31 11:50 210 7 5.4 5.0 Light rain.
2015-Mar-31 10:50 190 9 5.4 5.0 Light rain.
2015-Mar-31 09:50 200 9 5.4 4.0 Light rain.
2015-Mar-31 08:50 200 11 5.4 4.0 Light rain.
2015-Mar-31 07:50 210 10 5.4 4.0
2015-Mar-31 06:50 210 12 5.4 4.0
2015-Mar-31 05:50 200 14 5.4 4.0 Light rain.
2015-Mar-31 04:50 200 12 3.8 4.0 Light rain.
2015-Mar-31 03:50 190 12 4.9 5.0 Light rain.
2015-Mar-31 02:50 180 17 gusting 27 3.8 5.0 Drizzle.
2015-Mar-31 01:50 170 18 gusting 27 5.4 6.0 Light rain.
2015-Mar-31 00:50 170 19 5.4 6.0 Light rain.
2015-Mar-30 23:50 150 16 5.4 6.0
2015-Mar-30 22:50 140 12 5.4 5.0
2015-Mar-30 21:50 140 12 5.4 4.0
2015-Mar-30 20:50 140 14 5.4 4.0
2015-Mar-30 19:50 140 13 5.4 4.0
2015-Mar-30 18:50 140 12 5.4 3.0
2015-Mar-30 17:50 150 14 5.4 3.0
2015-Mar-30 16:50 140 15 4.9 3.0 Light rain.
2015-Mar-30 15:50 130 17 5.4 3.0 Light rain.
2015-Mar-30 14:50 130 16 5.4 3.0 Light rain.
2015-Mar-30 13:50 130 17 5.4 3.0 Light rain.
2015-Mar-30 12:50 120 16 5.4 3.0 Light rain.
2015-Mar-30 11:50 130 17 5.4 3.0
2015-Mar-30 10:50 130 17 5.4 3.0